Date_and_time,latitude,longitude,wind_speed,RelWindDirFrom,WindDirFrom,air_pressure,air_temperature,relative_humidity,Temp,platform_speed_wrt_ground,air_pressure_at_mean_sea_level,platform_orientation
2019-05-18 23:40,50.63045,-96.9807766666667,16.6,19.0,9,992.24,8.9,62,9.22,0.0,1019.31,192.6
2019-05-18 23:50,50.63045,-96.980775,17.6,20.2,8,991.99,8.9,63,9.21,0.0,1019.06,192.6
2019-05-19 00:00,50.6304483333333,-96.9807766666667,17.4,19.9,10,991.93,8.8,63,9.21,0.0,1019.00,360.0
2019-05-19 00:10,50.6304483333333,-96.980775,16.8,19.3,16,991.97,8.9,63,9.22,0.0,1019.04,360.0
2019-05-19 00:20,50.6304483333333,-96.980775,15.3,18.2,20,992.25,8.9,65,9.23,0.0,1019.32,360.0
2019-05-19 00:30,50.6304583333333,-96.980775,16.0,19.2,14,992.29,8.9,65,9.24,0.0,1019.37,360.0
2019-05-19 00:40,50.63045,-96.98077,15.4,17.4,18,992.44,8.9,64,9.24,0.0,1019.52,360.0
2019-05-19 00:50,50.630455,-96.9807933333333,14.9,16.3,17,992.65,8.8,64,9.25,0.0,1019.74,360.0
2019-05-19 01:00,50.6304416666667,-96.98075,14.2,17.0,17,992.76,8.7,66,9.24,0.0,1019.87,125.3
2019-05-19 01:10,50.6304466666667,-96.9807583333333,13.5,15.2,17,992.76,8.8,66,9.24,0.0,1019.86,125.3
2019-05-19 01:20,50.6304483333333,-96.9807666666667,13.2,15.2,17,992.91,8.5,68,9.23,0.0,1020.03,125.3
2019-05-19 01:30,50.6304483333333,-96.98077,13.2,15.1,18,992.94,8.2,71,9.21,0.0,1020.08,125.3
2019-05-19 01:40,50.63044,-96.9807733333333,14.1,16.1,20,992.96,8.2,70,9.19,0.0,1020.11,125.3
2019-05-19 01:50,50.6304466666667,-96.9807716666667,13.7,15.2,25,992.94,8.4,69,9.18,0.0,1020.08,125.3
2019-05-19 02:00,50.630445,-96.9807816666667,13.7,15.2,21,992.91,8.3,71,9.18,0.0,1020.05,0.0
2019-05-19 02:10,50.6304433333333,-96.98076,13.7,15.7,24,993.02,8.2,70,9.20,0.0,1020.17,0.0
2019-05-19 02:20,50.6304466666667,-96.98076,13.0,14.7,28,993.16,8.1,71,9.21,0.0,1020.32,0.0
2019-05-19 02:30,50.630445,-96.9807783333333,12.1,13.8,34,993.38,8.0,71,9.23,0.0,1020.55,0.0
2019-05-19 02:40,50.63044,-96.9807716666667,12.9,15.4,34,993.26,8.0,70,9.23,0.0,1020.43,0.0
2019-05-19 02:50,50.6304433333333,-96.9807716666667,13.4,15.2,34,993.23,8.2,68,9.24,0.0,1020.40,0.0
2019-05-19 03:00,50.6304466666667,-96.980775,12.4,14.1,40,993.41,8.2,69,9.23,0.0,1020.58,0.0
2019-05-19 03:10,50.6304466666667,-96.980775,12.3,14.1,39,993.45,8.1,69,9.21,0.0,1020.64,0.0
2019-05-19 03:20,50.6304466666667,-96.9807716666667,12.5,14.3,39,993.54,8.1,68,9.18,0.0,1020.74,0.0
2019-05-19 03:30,50.6304466666667,-96.98077,12.6,14.2,39,993.58,8.2,66,9.16,0.0,1020.77,0.0
2019-05-19 03:40,50.6304633333333,-96.98078,12.1,13.4,40,993.67,8.1,67,9.17,0.0,1020.86,0.0
2019-05-19 03:50,50.6304483333333,-96.980765,11.9,13.4,41,993.75,8.1,67,9.17,0.0,1020.95,0.0
2019-05-19 04:00,50.6304483333333,-96.9807733333333,12.3,14.4,40,993.77,8.1,67,9.16,0.0,1020.98,293.6
2019-05-19 04:10,50.63045,-96.9807766666667,12.5,14.2,44,993.93,8.2,66,9.16,0.0,1021.14,293.6
2019-05-19 04:20,50.6304483333333,-96.9807766666667,12.7,14.4,41,993.95,8.2,66,9.18,0.0,1021.17,293.6
2019-05-19 04:30,50.630445,-96.980775,12.1,14.2,35,994.00,7.9,70,9.22,0.0,1021.23,293.6
2019-05-19 04:40,50.630455,-96.9807683333333,11.2,13.7,32,994.15,7.6,73,9.27,0.0,1021.39,293.6
2019-05-19 04:50,50.630455,-96.9807733333333,12.5,14.2,33,994.14,7.7,70,9.28,0.0,1021.38,293.6
2019-05-19 05:00,50.6304416666667,-96.9807733333333,11.9,13.4,31,994.25,7.6,71,9.26,0.0,1021.50,90.0
2019-05-19 05:10,50.63044,-96.9807733333333,13.1,15.2,34,994.32,7.7,69,9.25,0.0,1021.57,90.0
2019-05-19 05:20,50.6304433333333,-96.980775,13.2,15.8,38,994.53,7.7,68,9.25,0.0,1021.78,90.0
2019-05-19 05:30,50.63045,-96.9807816666667,11.3,12.9,33,994.63,7.4,73,9.23,0.0,1021.90,90.0
2019-05-19 05:40,50.63045,-96.9807733333333,12.4,14.5,35,994.57,7.4,72,9.20,0.0,1021.84,90.0
2019-05-19 05:50,50.63045,-96.9807733333333,13.7,15.5,41,994.64,7.3,71,9.19,0.0,1021.91,90.0
2019-05-19 06:00,50.630435,-96.98075,14.5,16.9,43,994.60,7.3,72,9.16,0.0,1021.87,130.6
2019-05-19 06:10,50.63045,-96.9807683333333,14.4,17.0,43,994.66,7.2,74,9.13,0.0,1021.94,130.6
2019-05-19 06:20,50.630485,-96.9807983333333,14.6,16.8,44,994.64,7.1,74,9.12,0.0,1021.94,130.6
2019-05-19 06:30,50.63044,-96.9807533333333,15.1,17.0,44,994.67,7.0,74,9.11,0.0,1021.98,130.6
2019-05-19 06:40,50.630455,-96.9807733333333,15.2,17.7,42,994.71,7.0,74,9.11,0.0,1022.03,130.6
2019-05-19 06:50,50.6304566666667,-96.9807816666667,15.7,18.5,42,994.68,7.0,73,9.11,0.0,1022.00,130.6
2019-05-19 07:00,50.63045,-96.98078,16.7,20.1,40,994.60,7.0,72,9.11,0.0,1021.91,305.3
2019-05-19 07:10,50.63046,-96.9807616666667,16.0,19.4,38,994.57,6.9,73,9.11,0.0,1021.89,305.3
2019-05-19 07:20,50.63045,-96.9807616666667,15.7,19.3,38,994.54,6.7,74,9.11,0.0,1021.87,305.3
2019-05-19 07:30,50.63045,-96.9807683333333,16.6,19.2,44,994.52,6.7,74,9.11,0.0,1021.85,305.3
2019-05-19 07:40,50.63045,-96.980765,17.0,19.3,46,994.49,6.7,73,9.11,0.0,1021.84,305.3
2019-05-19 07:50,50.63045,-96.9807766666667,16.3,19.0,47,994.55,6.7,73,9.11,0.0,1021.89,305.3
2019-05-19 08:00,50.63045,-96.9807783333333,15.8,18.2,45,994.58,6.7,74,9.09,0.0,1021.94,347.4
2019-05-19 08:10,50.6304516666667,-96.9807766666667,15.9,17.9,43,994.55,6.6,74,9.09,0.0,1021.91,347.4
2019-05-19 08:20,50.6304533333333,-96.9807733333333,15.7,18.3,42,994.53,6.5,76,9.10,0.0,1021.90,347.4
2019-05-19 08:30,50.6304233333333,-96.980765,15.7,18.4,40,994.39,6.5,76,9.11,0.0,1021.75,347.4
2019-05-19 08:40,50.63043,-96.9807633333333,15.9,18.6,40,994.31,6.4,76,9.13,0.0,1021.67,347.4
2019-05-19 08:50,50.630465,-96.9807683333333,15.4,18.2,40,994.26,6.4,78,9.15,0.0,1021.62,347.4
2019-05-19 09:00,50.63046,-96.9807633333333,15.9,17.7,40,994.12,6.3,77,9.15,0.0,1021.49,345.5
2019-05-19 09:10,50.6304483333333,-96.9807666666667,16.0,18.4,41,994.12,6.3,78,9.15,0.0,1021.50,345.5
2019-05-19 09:20,50.630445,-96.9807666666667,15.8,18.1,41,994.07,6.3,77,9.15,0.0,1021.45,345.5
2019-05-19 09:30,50.6304483333333,-96.9807666666667,16.0,18.5,43,994.07,6.3,77,9.15,0.0,1021.45,345.5
2019-05-19 09:40,50.63045,-96.9807666666667,15.7,18.0,44,994.12,6.3,78,9.15,0.0,1021.51,345.5
2019-05-19 09:50,50.63045,-96.9807666666667,15.1,17.5,46,994.21,6.2,77,9.15,0.0,1021.60,345.5
2019-05-19 10:00,50.63045,-96.9807683333333,14.6,16.6,48,994.30,6.2,78,9.14,0.0,1021.69,90.0
2019-05-19 10:10,50.63045,-96.9807683333333,13.8,16.6,47,994.38,6.3,80,9.14,0.0,1021.78,90.0
2019-05-19 10:20,50.63045,-96.9807683333333,13.7,16.6,48,994.52,6.3,79,9.15,0.0,1021.93,90.0
2019-05-19 10:30,50.63045,-96.9807683333333,14.5,16.9,49,994.60,6.2,79,9.14,0.0,1022.01,90.0
2019-05-19 10:40,50.63045,-96.9807683333333,15.4,17.8,48,994.64,6.2,77,9.14,0.0,1022.05,90.0
2019-05-19 10:50,50.63045,-96.98077,15.8,18.9,47,994.66,6.2,77,9.13,0.0,1022.08,90.0
2019-05-19 11:00,50.63045,-96.98077,14.2,16.3,42,994.75,6.1,80,9.12,0.0,1022.18,90.0
2019-05-19 11:10,50.63045,-96.98077,15.0,16.8,41,994.77,5.9,80,9.12,0.0,1022.21,90.0
2019-05-19 11:20,50.6304566666667,-96.9808,14.5,16.9,40,994.83,5.9,80,9.11,0.0,1022.27,90.0
2019-05-19 11:30,50.630455,-96.980785,14.9,17.6,40,994.89,5.9,80,9.11,0.0,1022.34,90.0
2019-05-19 11:40,50.6304516666667,-96.9807883333333,14.3,16.9,41,994.96,5.9,81,9.11,0.0,1022.41,90.0
2019-05-19 11:50,50.630455,-96.9807816666667,14.1,16.3,42,994.99,5.8,80,9.10,0.0,1022.45,90.0
2019-05-19 12:00,50.6304466666667,-96.9807683333333,13.8,15.7,45,994.94,5.9,80,9.10,0.0,1022.39,360.0
2019-05-19 12:10,50.630445,-96.98077,13.6,16.0,40,994.99,5.9,81,9.09,0.0,1022.44,360.0
2019-05-19 12:20,50.6304483333333,-96.9807733333333,14.6,17.2,36,995.05,5.7,81,9.08,0.0,1022.51,360.0
2019-05-19 12:30,50.6304483333333,-96.9807716666667,14.6,16.7,36,995.02,5.5,80,9.08,0.0,1022.49,360.0
2019-05-19 12:40,50.6304483333333,-96.98077,14.1,15.9,34,995.09,5.4,81,9.08,0.0,1022.57,360.0
2019-05-19 12:50,50.6304233333333,-96.98078,13.8,15.6,34,995.16,5.3,82,9.07,0.0,1022.65,360.0
2019-05-19 13:00,50.63045,-96.9807666666667,14.2,15.9,34,995.21,5.3,82,9.07,0.0,1022.70,0.0
2019-05-19 13:10,50.6304433333333,-96.9807683333333,14.0,15.7,37,995.30,5.2,81,9.07,0.0,1022.81,0.0
2019-05-19 13:20,50.6304416666667,-96.980765,12.9,14.8,36,995.38,5.2,83,9.07,0.0,1022.89,0.0
2019-05-19 13:30,50.63043,-96.9807866666667,13.1,14.9,32,995.41,5.2,84,9.05,0.0,1022.92,0.0
2019-05-19 13:40,50.6304433333333,-96.9807816666667,13.3,15.0,30,995.42,5.0,84,9.04,0.0,1022.95,0.0
2019-05-19 13:50,50.630445,-96.9807583333333,13.0,14.5,26,995.47,5.0,85,9.04,0.0,1023.00,0.0
2019-05-19 14:00,50.6304416666667,-96.9807616666667,12.4,14.3,26,995.48,5.1,86,9.03,0.0,1023.00,360.0
2019-05-19 14:10,50.6304466666667,-96.9807633333333,13.0,14.7,24,995.44,5.1,85,9.03,0.0,1022.97,360.0
2019-05-19 14:20,50.6304466666667,-96.9807683333333,12.7,14.2,22,995.38,5.2,85,9.03,0.0,1022.91,360.0
2019-05-19 14:30,50.63042,-96.9807566666667,12.5,14.6,22,995.41,5.3,85,9.03,0.0,1022.95,360.0
2019-05-19 14:40,50.6304383333333,-96.98076,12.2,13.7,22,995.37,5.3,85,9.01,0.0,1022.91,360.0
2019-05-19 14:50,50.6304433333333,-96.9807633333333,11.9,13.5,23,995.38,5.4,85,8.98,0.0,1022.90,360.0
2019-05-19 15:00,50.6304566666667,-96.9807616666667,11.7,13.2,21,995.39,5.5,83,8.97,0.0,1022.92,48.3
2019-05-19 15:10,50.6304533333333,-96.9807633333333,11.6,13.4,21,995.35,5.6,82,8.96,0.0,1022.87,48.3
2019-05-19 15:20,50.6304566666667,-96.98078,11.7,13.2,18,995.23,5.7,81,8.95,0.0,1022.75,48.3
2019-05-19 15:30,50.6304533333333,-96.9807783333333,11.1,13.0,20,995.20,5.7,80,8.96,0.0,1022.72,48.3
2019-05-19 15:40,50.6304533333333,-96.980775,11.3,13.0,17,995.21,5.8,79,8.96,0.0,1022.73,48.3
2019-05-19 15:50,50.6304533333333,-96.980775,11.2,12.6,15,995.19,6.0,76,8.96,0.0,1022.70,48.3
2019-05-19 16:00,50.6304516666667,-96.9807733333333,10.8,12.9,17,995.27,6.1,76,8.97,0.0,1022.77,270.0
2019-05-19 16:10,50.6304516666667,-96.9807733333333,11.4,13.3,13,995.27,6.2,75,8.98,0.0,1022.76,270.0
2019-05-19 16:20,50.63045,-96.9807733333333,12.0,13.7,8,995.21,6.4,76,9.00,0.0,1022.69,270.0
2019-05-19 16:30,50.6304483333333,-96.98075,12.5,14.2,6,995.12,6.3,79,9.00,0.0,1022.59,270.0
2019-05-19 16:40,50.6304466666667,-96.980755,12.3,13.7,5,995.12,6.3,78,9.02,0.0,1022.59,270.0
2019-05-19 16:50,50.6304483333333,-96.980755,12.5,14.3,7,995.05,6.4,74,9.04,0.0,1022.52,270.0
2019-05-19 17:00,50.6304483333333,-96.9807583333333,11.2,12.8,13,995.12,6.5,71,9.06,0.0,1022.57,360.0
2019-05-19 17:10,50.630445,-96.9807933333333,10.2,11.9,14,995.16,6.7,70,9.08,0.0,1022.60,360.0
2019-05-19 17:20,50.63045,-96.9807716666667,9.7,11.0,12,995.09,6.7,69,9.08,0.0,1022.53,360.0
2019-05-19 17:30,50.6304466666667,-96.9807716666667,9.1,10.3,9,995.01,6.9,68,9.09,0.0,1022.43,360.0
2019-05-19 17:40,50.6304433333333,-96.9807633333333,8.9,11.0,10,994.86,7.1,63,9.09,0.0,1022.26,360.0
2019-05-19 17:50,50.630445,-96.98077,8.1,9.9,12,994.80,7.4,62,9.11,0.0,1022.17,360.0
2019-05-19 18:00,50.6304466666667,-96.9807666666667,8.5,11.5,8,994.66,7.7,61,9.14,0.0,1022.01,228.3
2019-05-19 18:10,50.63045,-96.9807666666667,8.8,10.1,8,994.58,7.9,60,9.19,0.0,1021.91,228.3
2019-05-19 18:20,50.6304466666667,-96.98077,8.7,10.9,5,994.45,8.1,59,9.24,0.0,1021.77,228.3
2019-05-19 18:30,50.6304483333333,-96.98077,9.4,12.1,1,994.28,8.4,59,9.27,0.0,1021.58,228.3
2019-05-19 18:40,50.6304483333333,-96.98077,9.5,12.9,3,994.19,8.7,58,9.33,0.0,1021.47,228.3
2019-05-19 18:50,50.6304483333333,-96.98077,9.8,13.1,2,994.07,8.9,57,9.37,0.0,1021.33,228.3
2019-05-19 19:00,50.6304483333333,-96.98077,11.2,13.9,5,993.90,9.1,61,9.39,0.0,1021.14,167.4
2019-05-19 19:10,50.63045,-96.9807716666667,11.6,14.0,6,993.71,9.2,62,9.40,0.0,1020.93,167.4
2019-05-19 19:20,50.63045,-96.98077,12.3,15.3,4,993.52,9.4,62,9.41,0.0,1020.73,167.4
2019-05-19 19:30,50.63045,-96.98077,12.7,15.5,2,993.34,9.6,61,9.44,0.0,1020.52,167.4
2019-05-19 19:40,50.63045,-96.98077,14.1,18.0,359,993.16,10.1,59,9.46,0.0,1020.30,167.4
2019-05-19 19:50,50.6304516666667,-96.98077,15.4,19.0,360,992.91,10.5,57,9.47,0.0,1019.99,167.4
2019-05-19 20:00,50.6304516666667,-96.98077,15.3,19.0,359,992.73,10.8,57,9.49,0.0,1019.79,347.4
2019-05-19 20:10,50.63045,-96.9807683333333,15.8,20.1,358,992.50,11.0,57,9.54,0.0,1019.54,347.4
2019-05-19 20:20,50.6304516666667,-96.9807666666667,16.1,19.4,360,992.37,11.1,58,9.56,0.0,1019.39,347.4
2019-05-19 20:30,50.6304483333333,-96.980765,15.9,19.7,1,992.29,11.3,57,9.56,0.0,1019.28,347.4
2019-05-19 20:40,50.63045,-96.9807633333333,16.0,19.5,1,992.16,11.3,58,9.53,0.0,1019.14,347.4
2019-05-19 20:50,50.63042,-96.9807333333333,16.4,20.3,0,992.09,11.5,57,9.49,0.0,1019.04,347.4
2019-05-19 21:00,50.6304483333333,-96.9807733333333,16.4,20.3,359,992.01,11.8,56,9.54,0.0,1018.94,270.0
2019-05-19 21:10,50.630445,-96.9807716666667,16.0,19.5,360,991.94,12.1,55,9.58,0.0,1018.85,270.0
2019-05-19 21:20,50.6304466666667,-96.98077,16.7,20.4,358,991.81,12.3,54,9.62,0.0,1018.70,270.0
2019-05-19 21:30,50.6304483333333,-96.98077,16.5,19.6,360,991.70,12.4,54,9.62,0.0,1018.55,270.0
2019-05-19 21:40,50.6304483333333,-96.98077,16.6,19.3,359,991.64,12.4,54,9.64,0.0,1018.47,270.0
2019-05-19 21:50,50.63045,-96.9807733333333,16.7,20.4,358,991.55,12.6,52,9.66,0.0,1018.36,270.0
2019-05-19 22:00,50.63045,-96.9807733333333,15.7,19.1,358,991.46,12.8,52,9.68,0.0,1018.24,347.4
2019-05-19 22:10,50.6304633333333,-96.9807816666667,15.8,19.0,359,991.34,13.0,50,9.70,0.0,1018.11,347.4
2019-05-19 22:20,50.6304483333333,-96.9807716666667,15.3,19.3,357,991.31,13.1,50,9.72,0.0,1018.07,347.4
2019-05-19 22:30,50.6304483333333,-96.980765,15.4,19.0,359,991.27,13.1,51,9.74,0.0,1018.02,347.4
2019-05-19 22:40,50.6304533333333,-96.98077,15.0,18.6,358,991.25,13.2,50,9.78,0.0,1017.98,347.4
2019-05-19 22:50,50.6304483333333,-96.980795,14.4,17.3,358,991.24,13.3,51,9.80,0.0,1017.96,347.4
2019-05-19 23:00,50.6304516666667,-96.9807766666667,14.5,17.7,358,991.16,13.4,51,9.80,0.0,1017.85,270.0
2019-05-19 23:10,50.630455,-96.9807783333333,14.1,16.6,358,991.15,13.5,51,9.83,0.0,1017.83,270.0
2019-05-19 23:20,50.630455,-96.9807766666667,14.2,18.3,358,991.13,13.4,51,9.85,0.0,1017.81,270.0
2019-05-19 23:30,50.6304533333333,-96.9807766666667,14.2,16.4,359,991.11,13.5,51,9.83,0.0,1017.78,270.0
2019-05-19 23:40,50.630455,-96.9807766666667,14.8,17.7,358,991.08,13.5,50,9.81,0.0,1017.74,270.0
2019-05-19 23:50,50.6304416666667,-96.9807833333333,15.6,19.2,358,991.04,13.5,50,9.82,0.0,1017.70,270.0
